Paducah, KY

3:34 PM CDT on March 29, 2017 (GMT -0500)
Barkley Regional

Weather History for KPAH - January, 2015

Change the Weather History Date:

Thursday, January 15, 2015

  Actual Average Record
Temperature  
Mean Temperature 31 °F 34 °F  
Max Temperature 36 °F 43 °F 68 °F (1953)
Min Temperature 26 °F 26 °F -1 °F (1972)
Degree Days  
Heating Degree Days 34 31  
Month to date heating degree days 538 462  
Since 1 July heating degree days 2221 2093  
Cooling Degree Days 0 0  
Month to date cooling degree days 0 0  
Year to date cooling degree days 0 0  
Moisture  
Dew Point 26 °F    
Average Humidity 81    
Maximum Humidity 92    
Minimum Humidity 69    
Precipitation  
Precipitation 0.05 in 0.11 in 1.07 in (1997)
Month to date precipitation 1.46 1.78  
Year to date precipitation 1.46 1.78  
Snow  
Snow 0.50 in 0.10 in 0.50 in (2015)
Month to date snowfall 0.5 1.3  
Since 1 July snowfall 3.5 3.6  
Snow Depth 0.00 in    
Sea Level Pressure  
Sea Level Pressure 30.24 in    
Wind  
Wind Speed 4 mph (WSW)    
Max Wind Speed 12 mph    
Max Gust Speed 15 mph    
Visibility 7 miles    
Events Fog , Snow    
T = Trace of Precipitation, MM = Missing Value Source: NWS Daily Summary

Daily Weather History Graph

Daily Weather History Graph

Search for Another Location

Airport or City:

Trip Planner

Search our weather history database for the weather conditions in past years. The results will help you decide how hot, cold, wet, or windy it might be!

Date:

Astronomy

Jan. 15, 2015 Rise Set
Actual Time 7:07 AM CST 5:01 PM CST
Civil Twilight 6:39 AM CST 5:30 PM CST
Nautical Twilight 6:07 AM CST 6:01 PM CST
Astronomical Twilight 5:36 AM CST 6:33 PM CST
Moon 2:03 AM CST (1/15) 12:51 PM CST (1/15)
Length of Visible Light 10h 50m
Length of Day
9h 54m
Waning Crescent, 27% of the Moon is Illuminated
Jan 15
Waning Crescent
Jan 20
New
Jan 26
First Quarter
Feb 3
Full
Feb 11
Last Quarter

Hourly Weather History & Observations

Time (CST) Temp. Windchill Dew Point Humidity Pressure Visibility Wind Dir Wind Speed Gust Speed Precip Events Conditions
12:53 AM 27.0 °F - 21.9 °F 81% 30.26 in 10.0 mi Calm Calm - N/A   Scattered Clouds
1:53 AM 30.0 °F - 23.0 °F 75% 30.27 in 10.0 mi Calm Calm - N/A   Overcast
2:53 AM 30.0 °F - 23.0 °F 75% 30.26 in 10.0 mi Calm Calm - N/A   Overcast
3:53 AM 30.0 °F - 21.9 °F 72% 30.24 in 10.0 mi Calm Calm - N/A   Overcast
4:53 AM 30.0 °F 25.2 °F 21.9 °F 72% 30.24 in 10.0 mi North 4.6 mph - N/A   Overcast
5:53 AM 30.0 °F - 23.0 °F 75% 30.24 in 10.0 mi Calm Calm - N/A   Overcast
6:53 AM 30.0 °F - 23.0 °F 75% 30.26 in 10.0 mi Calm Calm - N/A   Overcast
7:39 AM 30.0 °F - 23.0 °F 75% 30.24 in 2.5 mi Calm Calm - 0.00 in Snow Light Snow
7:48 AM 28.4 °F 24.6 °F 24.8 °F 86% 30.25 in 1.2 mi SSW 3.5 mph - 0.00 in Snow Light Snow
7:53 AM 28.9 °F - 23.0 °F 78% 30.26 in 1.0 mi Calm Calm - 0.00 in Snow Light Snow
8:00 AM 28.9 °F - 24.1 °F 82% 30.25 in 0.8 mi Calm Calm - 0.01 in Snow Light Snow
8:43 AM 28.0 °F - 26.1 °F 92% 30.25 in 0.5 mi Calm Calm - 0.03 in Fog , Snow Snow
8:53 AM 28.0 °F - 26.1 °F 92% 30.27 in 0.8 mi Calm Calm - 0.04 in Snow Light Snow
9:09 AM 28.9 °F 25.2 °F 26.1 °F 89% 30.26 in 0.8 mi West 3.5 mph - 0.00 in Snow Light Snow
9:17 AM 28.9 °F 25.2 °F 26.1 °F 89% 30.26 in 1.5 mi WSW 3.5 mph - 0.01 in Snow Light Snow
9:33 AM 28.9 °F - 26.1 °F 89% 30.27 in 3.0 mi Calm Calm - 0.01 in Snow Light Snow
9:48 AM 28.4 °F - 26.6 °F 93% 30.27 in 6.0 mi Calm Calm - 0.01 in   Overcast
9:53 AM 28.9 °F - 26.1 °F 89% 30.28 in 6.0 mi Calm Calm - 0.01 in   Overcast
10:53 AM 30.0 °F 26.5 °F 26.1 °F 85% 30.27 in 8.0 mi SW 3.5 mph - N/A   Overcast
11:36 AM 30.9 °F 25.2 °F 26.1 °F 82% 30.24 in 8.0 mi WSW 5.8 mph - N/A   Overcast
11:53 AM 30.9 °F 24.3 °F 26.1 °F 82% 30.24 in 8.0 mi WSW 6.9 mph - N/A   Overcast
12:53 PM 32.0 °F 26.4 °F 27.0 °F 82% 30.22 in 7.0 mi SW 5.8 mph - N/A   Overcast
1:13 PM 32.0 °F 25.6 °F 28.0 °F 85% 30.20 in 6.0 mi SW 6.9 mph - N/A   Overcast
1:21 PM 33.1 °F 27.7 °F 28.0 °F 82% 30.19 in 6.0 mi SSW 5.8 mph - N/A   Haze
1:53 PM 33.1 °F 27.7 °F 28.9 °F 85% 30.20 in 7.0 mi SSW 5.8 mph - N/A   Overcast
2:53 PM 34.0 °F 27.2 °F 28.9 °F 82% 30.20 in 9.0 mi WSW 8.1 mph - N/A   Overcast
3:43 PM 35.1 °F 27.9 °F 28.9 °F 78% 30.18 in 9.0 mi WSW 9.2 mph - N/A   Scattered Clouds
3:53 PM 34.0 °F 27.2 °F 28.0 °F 79% 30.20 in 9.0 mi WSW 8.1 mph - N/A   Scattered Clouds
4:10 PM 35.1 °F 27.4 °F 28.9 °F 78% 30.19 in 9.0 mi West 10.4 mph - N/A   Mostly Cloudy
4:19 PM 34.0 °F 28.0 °F 28.0 °F 79% 30.20 in 9.0 mi WNW 6.9 mph - N/A   Scattered Clouds
4:53 PM 32.0 °F 24.8 °F 27.0 °F 82% 30.21 in 8.0 mi WSW 8.1 mph - N/A   Clear
5:53 PM 30.0 °F 25.2 °F 27.0 °F 88% 30.22 in 8.0 mi SW 4.6 mph - N/A   Clear
6:53 PM 28.9 °F - 25.0 °F 85% 30.22 in 8.0 mi Calm Calm - N/A   Clear
7:53 PM 28.9 °F 22.8 °F 26.1 °F 89% 30.23 in 6.0 mi SW 5.8 mph - N/A   Clear
8:53 PM 28.9 °F 21.9 °F 26.1 °F 89% 30.23 in 6.0 mi SW 6.9 mph - N/A   Clear
9:53 PM 27.0 °F 20.5 °F 25.0 °F 92% 30.23 in 7.0 mi WSW 5.8 mph - N/A   Clear
10:53 PM 28.0 °F 22.8 °F 25.0 °F 88% 30.24 in 7.0 mi SW 4.6 mph - N/A   Clear
11:53 PM 28.0 °F 20.8 °F 24.1 °F 85% 30.22 in 8.0 mi SW 6.9 mph - N/A   Clear